Danbury, CT

2:17 AM EDT on June 29, 2017 (GMT -0400)
Danbury Municipal

Weather History for KDXR - November, 2013

Change the Weather History Date:

Thursday, November 28, 2013

  Actual Average Record
Temperature  
Mean Temperature 26 °F -  
Max Temperature 32 °F 48 °F 64 °F (2003)
Min Temperature 21 °F 31 °F 10 °F (2002)
Degree Days  
Heating Degree Days 38    
Moisture  
Dew Point 11 °F    
Average Humidity 51    
Maximum Humidity 68    
Minimum Humidity 37    
Precipitation  
Precipitation 0.48 in - - ()
Sea Level Pressure  
Sea Level Pressure 30.19 in    
Wind  
Wind Speed 10 mph (WNW)    
Max Wind Speed 17 mph    
Max Gust Speed 30 mph    
Visibility 10 miles    
Events      
Averages and records for this station are not official NWS values.
T = Trace of Precipitation, MM = Missing Value Source: NWS Daily Summary

Daily Weather History Graph

Daily Weather History Graph

Search for Another Location

Airport or City:

Trip Planner

Search our weather history database for the weather conditions in past years. The results will help you decide how hot, cold, wet, or windy it might be!

Date:

Astronomy

Nov. 28, 2013 Rise Set
Actual Time 6:57 AM EST 4:26 PM EST
Civil Twilight 6:26 AM EST 4:56 PM EST
Nautical Twilight 5:52 AM EST 5:31 PM EST
Astronomical Twilight 5:19 AM EST 6:04 PM EST
Moon 1:54 AM EST (11/28) 1:36 PM EST (11/28)
Length of Visible Light 10h 29m
Length of Day
9h 28m
Waning Crescent, 22% of the Moon is Illuminated
Nov 28
Waning Crescent
Dec 2
New
Dec 9
First Quarter
Dec 17
Full
Dec 25
Last Quarter

Hourly Weather History & Observations

Time (EST) Temp. Windchill Dew Point Humidity Pressure Visibility Wind Dir Wind Speed Gust Speed Precip Events Conditions
12:53 AM 32.0 °F 23.0 °F 17.1 °F 54% 29.72 in 10.0 mi West 11.5 mph 24.2 mph 0.05 in   Partly Cloudy
1:53 AM 30.9 °F 21.2 °F 17.1 °F 57% 29.77 in 10.0 mi West 12.7 mph 21.9 mph 0.05 in   Scattered Clouds
2:53 AM 30.0 °F 19.5 °F 16.0 °F 56% 29.81 in 10.0 mi West 13.8 mph 20.7 mph 0.04 in   Scattered Clouds
3:53 AM 28.0 °F 17.0 °F 12.9 °F 53% 29.87 in 10.0 mi WNW 13.8 mph 29.9 mph 0.05 in   Partly Cloudy
4:53 AM 27.0 °F 17.3 °F 14.0 °F 58% 29.94 in 10.0 mi West 10.4 mph 20.7 mph 0.03 in   Scattered Clouds
5:53 AM 27.0 °F 14.3 °F 10.9 °F 51% 30.00 in 10.0 mi WNW 17.3 mph 26.5 mph 0.04 in   Partly Cloudy
6:53 AM 26.1 °F 13.6 °F 10.0 °F 51% 30.06 in 10.0 mi West 16.1 mph 23.0 mph 0.03 in   Clear
7:53 AM 27.0 °F 17.3 °F 12.0 °F 53% 30.12 in 10.0 mi West 10.4 mph 21.9 mph 0.03 in   Clear
8:53 AM 28.0 °F 18.1 °F 10.0 °F 47% 30.15 in 10.0 mi WNW 11.5 mph 19.6 mph 0.03 in   Clear
9:53 AM 28.9 °F 20.4 °F 12.0 °F 49% 30.19 in 10.0 mi WNW 9.2 mph - 0.02 in   Clear
10:53 AM 30.0 °F 21.1 °F 10.0 °F 43% 30.21 in 10.0 mi West 10.4 mph 20.7 mph 0.02 in   Clear
11:53 AM 30.0 °F 20.0 °F 9.0 °F 41% 30.20 in 10.0 mi WNW 12.7 mph 24.2 mph 0.01 in   Clear
12:53 PM 32.0 °F 22.5 °F 10.0 °F 40% 30.22 in 10.0 mi NW 12.7 mph 20.7 mph 0.01 in   Partly Cloudy
1:53 PM 30.9 °F 22.2 °F 9.0 °F 40% 30.24 in 10.0 mi NW 10.4 mph 19.6 mph 0.01 in   Scattered Clouds
2:53 PM 30.9 °F 22.8 °F 8.1 °F 38% 30.27 in 10.0 mi WNW 9.2 mph 17.3 mph 0.01 in   Clear
3:53 PM 30.9 °F 25.2 °F 7.0 °F 37% 30.30 in 10.0 mi Variable 5.8 mph - 0.01 in   Clear
4:53 PM 28.9 °F 22.8 °F 6.1 °F 38% 30.35 in 10.0 mi WNW 5.8 mph - N/A   Clear
5:53 PM 28.9 °F 23.9 °F 6.1 °F 38% 30.39 in 10.0 mi WNW 4.6 mph - 0.01 in   Clear
6:53 PM 25.0 °F - 9.0 °F 51% 30.42 in 10.0 mi Calm Calm - 0.01 in   Clear
7:53 PM 21.9 °F - 10.9 °F 63% 30.43 in 10.0 mi Calm Calm - N/A   Clear
8:53 PM 21.9 °F 17.2 °F 12.9 °F 68% 30.45 in 10.0 mi WSW 3.5 mph - 0.01 in   Mostly Cloudy
9:53 PM 23.0 °F - 14.0 °F 68% 30.45 in 10.0 mi Calm Calm - N/A   Overcast
10:53 PM 25.0 °F - 12.9 °F 60% 30.47 in 10.0 mi Calm Calm - 0.01 in   Overcast
11:53 PM 25.0 °F - 15.1 °F 66% 30.48 in 10.0 mi Calm Calm - N/A   Overcast